This is the latest recevied weather packets stored in our database for station/object DG1UDO-13. If no packets are shown the sender has not sent any weather packets the latest 10 day(s).
| Time | Temp. | Humidity | Pressure | Rain* | Wind** | Luminosity | Snow |
|---|---|---|---|---|---|---|---|
| 1777214101 | 13.89° C | 59% | 1025.8 hPa | - | - | - | - |
| 1777212301 | 13.33° C | 44% | 1025.7 hPa | - | - | - | - |
| 1777210501 | 13.89° C | 42% | 1026 hPa | - | - | - | - |
| 1777208700 | 13.33° C | 43% | 1026.2 hPa | - | - | - | - |
| 1777206901 | 14.44° C | 40% | 1026.4 hPa | - | - | - | - |
| 1777205101 | 13.33° C | 46% | 1026.3 hPa | - | - | - | - |
| 1777203301 | 12.78° C | 43% | 1026.7 hPa | - | - | - | - |
| 1777201501 | 11.67° C | 43% | 1026.7 hPa | - | - | - | - |
| 1777199701 | 11.67° C | 38% | 1026.9 hPa | - | - | - | - |
| 1777197901 | 11.67° C | 54% | 1026.7 hPa | - | - | - | - |
| 1777196101 | 10.56° C | 60% | 1026.9 hPa | - | - | - | - |
| 1777194301 | 10.56° C | 64% | 1026.7 hPa | - | - | - | - |
| 1777192501 | 10° C | 66% | 1026.8 hPa | - | - | - | - |
| 1777190701 | 10° C | 72% | 1026.4 hPa | - | - | - | - |
| 1777188901 | 7.78° C | 79% | 1026.4 hPa | - | - | - | - |
| 1777187101 | 7.22° C | 86% | 1025.7 hPa | - | - | - | - |
| 1777185300 | 5.56° C | 91% | 1025.7 hPa | - | - | - | - |
| 1777183500 | 4.44° C | 93% | 1025.2 hPa | - | - | - | - |
| 1777181701 | 3.33° C | 95% | 1025.1 hPa | - | - | - | - |
| 1777179900 | 2.78° C | 96% | 1024.7 hPa | - | - | - | - |
| 1777178101 | 2.22° C | 95% | 1024.4 hPa | - | - | - | - |
| 1777176301 | 2.78° C | 94% | 1023.9 hPa | - | - | - | - |
| 1777174500 | 2.78° C | 93% | 1023.9 hPa | - | - | - | - |
| 1777172700 | 2.78° C | 92% | 1023.5 hPa | - | - | - | - |
| 1777170901 | 3.33° C | 91% | 1023.2 hPa | - | - | - | - |
* Rain since midnight (hover to see other rain measurements)
** Current wind speed in m/s (hover to see current wind gust speed)